When you browse on this site, cookies collect data to enhance your experience and personalize the content and advertising you see.
Visit our Privacy Policy to learn more. By continuing to use the site, you agree to this use of cookies and data.
  • In Romania
  • List of Countries
  • For 7 days
  • Water Temperature
  • Weather Map
  • Weather Widgets
  • user-avatar
    Login

    Hourly Weather Newcastle

    Today, 22 August, Thursday

    Time Temperature Precipitation Wind Pressure Humidity
    00:00 +12°C° 0 mm 7 mps 760 mmHg 59%
    01:00 +12°C° 0 mm 8 mps 759 mmHg 60%
    02:00 +12°C° 0 mm 8 mps 759 mmHg 61%
    03:00 +12°C° 0 mm 8 mps 759 mmHg 62%
    04:00 +12°C° 0 mm 8 mps 758 mmHg 64%
    05:00 +12°C° 0 mm 8 mps 758 mmHg 62%
    06:00 +12°C° 0 mm 8 mps 758 mmHg 59%
    07:00 +13°C° 0 mm 8 mps 758 mmHg 56%
    08:00 +15°C° 0 mm 8 mps 758 mmHg 51%
    09:00 +17°C° 0 mm 8 mps 758 mmHg 46%
    10:00 +18°C° 0 mm 8 mps 758 mmHg 42%
    11:00 +20°C° 0 mm 8 mps 758 mmHg 40%
    12:00 +19°C° 0 mm 9 mps 759 mmHg 38%
    13:00 +21°C° 0 mm 9 mps 759 mmHg 36%
    14:00 +18°C° 0 mm 9 mps 759 mmHg 41%
    15:00 +16°C° 0 mm 9 mps 760 mmHg 46%
    16:00 +15°C° 0 mm 9 mps 761 mmHg 51%
    17:00 +13°C° 0 mm 9 mps 762 mmHg 53%
    18:00 +12°C° 0 mm 9 mps 763 mmHg 54%
    19:00 +12°C° 0 mm 8 mps 764 mmHg 56%
    20:00 +11°C° 0 mm 8 mps 764 mmHg 58%
    21:00 +10°C° 0 mm 8 mps 765 mmHg 59%
    22:00 +10°C° 0 mm 7 mps 766 mmHg 61%
    23:00 +9°C° 0 mm 7 mps 766 mmHg 63%

    Tomorrow, 23 August, Friday

    Time Temperature Precipitation Wind Pressure Humidity
    00:00 +9°C° 0 mm 7 mps 766 mmHg 65%
    01:00 +8°C° 0 mm 6 mps 766 mmHg 68%
    02:00 +8°C° 0 mm 6 mps 767 mmHg 67%
    03:00 +7°C° 0 mm 6 mps 767 mmHg 66%
    04:00 +7°C° 0 mm 5 mps 767 mmHg 65%
    05:00 +6°C° 0 mm 5 mps 767 mmHg 65%
    06:00 +6°C° 0 mm 5 mps 768 mmHg 64%
    07:00 +5°C° 0 mm 4 mps 768 mmHg 64%
    08:00 +7°C° 0 mm 4 mps 768 mmHg 59%
    09:00 +10°C° 0 mm 4 mps 769 mmHg 55%
    10:00 +12°C° 0 mm 3 mps 769 mmHg 50%
    11:00 +14°C° 0 mm 3 mps 768 mmHg 47%
    12:00 +17°C° 0 mm 2 mps 768 mmHg 43%
    13:00 +20°C° 0 mm 1 mps 767 mmHg 40%
    14:00 +18°C° 0 mm 2 mps 767 mmHg 42%
    15:00 +18°C° 0 mm 2 mps 766 mmHg 43%
    16:00 +17°C° 0 mm 2 mps 766 mmHg 45%
    17:00 +15°C° 0 mm 2 mps 766 mmHg 55%
    18:00 +13°C° 0 mm 2 mps 767 mmHg 66%
    19:00 +9°C° 0 mm 3 mps 767 mmHg 76%
    20:00 +9°C° 0 mm 3 mps 767 mmHg 78%
    21:00 +8°C° 0 mm 3 mps 767 mmHg 81%
    22:00 +7°C° 0 mm 4 mps 767 mmHg 84%
    23:00 +7°C° 0 mm 3 mps 767 mmHg 84%

    Day after tomorrow, 24 August, Saturday

    Time Temperature Precipitation Wind Pressure Humidity
    00:00 +7°C° 0 mm 3 mps 766 mmHg 85%
    01:00 +5°C° 0 mm 3 mps 766 mmHg 85%
    02:00 +5°C° 0 mm 3 mps 766 mmHg 85%
    03:00 +5°C° 0 mm 4 mps 765 mmHg 84%
    04:00 +5°C° 0 mm 4 mps 765 mmHg 84%
    05:00 +5°C° 0 mm 4 mps 765 mmHg 78%
    06:00 +6°C° 0 mm 5 mps 765 mmHg 72%
    07:00 +6°C° 0 mm 5 mps 766 mmHg 66%
    08:00 +9°C° 0 mm 6 mps 765 mmHg 55%
    09:00 +14°C° 0 mm 6 mps 765 mmHg 45%
    10:00 +17°C° 0 mm 7 mps 765 mmHg 35%
    11:00 +20°C° 0 mm 7 mps 764 mmHg 33%
    12:00 +21°C° 0 mm 7 mps 763 mmHg 32%
    13:00 +22°C° 0 mm 6 mps 762 mmHg 30%
    14:00 +22°C° 0 mm 6 mps 762 mmHg 32%
    15:00 +22°C° 0 mm 6 mps 761 mmHg 34%
    16:00 +22°C° 0 mm 5 mps 761 mmHg 36%
    17:00 +20°C° 0 mm 5 mps 761 mmHg 43%
    18:00 +18°C° 0 mm 4 mps 762 mmHg 49%
    19:00 +15°C° 0 mm 4 mps 762 mmHg 56%
    20:00 +14°C° 0 mm 3 mps 762 mmHg 60%
    21:00 +13°C° 0 mm 3 mps 762 mmHg 65%
    22:00 +12°C° 0 mm 3 mps 762 mmHg 69%
    23:00 +11°C° 0 mm 3 mps 762 mmHg 72%

    25 August, Sunday

    Time Temperature Precipitation Wind Pressure Humidity
    00:00 +11°C° 0 mm 3 mps 762 mmHg 76%
    01:00 +10°C° 0 mm 3 mps 762 mmHg 79%
    02:00 +10°C° 0 mm 3 mps 762 mmHg 81%
    03:00 +10°C° 0 mm 3 mps 761 mmHg 83%
    04:00 +9°C° 0 mm 3 mps 761 mmHg 86%
    05:00 +9°C° 0 mm 3 mps 762 mmHg 85%
    06:00 +8°C° 0 mm 4 mps 762 mmHg 84%
    07:00 +8°C° 0 mm 4 mps 762 mmHg 83%
    08:00 +12°C° 0 mm 4 mps 762 mmHg 69%
    09:00 +16°C° 0 mm 3 mps 762 mmHg 56%
    10:00 +20°C° 0 mm 3 mps 762 mmHg 42%
    11:00 +20°C° 0 mm 4 mps 762 mmHg 39%
    12:00 +21°C° 0 mm 4 mps 761 mmHg 36%
    13:00 +22°C° 0 mm 5 mps 761 mmHg 33%
    14:00 +21°C° 0 mm 5 mps 761 mmHg 44%
    15:00 +19°C° 0 mm 5 mps 761 mmHg 55%
    16:00 +17°C° 0 mm 5 mps 761 mmHg 66%
    17:00 +16°C° 0.1 mm 5 mps 762 mmHg 72%
    18:00 +15°C° 0.1 mm 5 mps 763 mmHg 79%
    19:00 +14°C° 0.1 mm 4 mps 763 mmHg 86%
    20:00 +14°C° 0.6 mm 4 mps 764 mmHg 88%
    21:00 +13°C° 0.6 mm 3 mps 764 mmHg 90%
    22:00 +13°C° 0.6 mm 2 mps 765 mmHg 93%
    23:00 +13°C° 0.3 mm 2 mps 765 mmHg 93%

    26 August, Monday

    Time Temperature Precipitation Wind Pressure Humidity
    00:00 +12°C° 0.3 mm 3 mps 765 mmHg 93%
    01:00 +12°C° 0.3 mm 3 mps 765 mmHg 93%
    02:00 +12°C° 0.5 mm 3 mps 765 mmHg 94%
    03:00 +12°C° 0.5 mm 3 mps 764 mmHg 94%
    04:00 +11°C° 0.5 mm 3 mps 764 mmHg 95%
    05:00 +12°C° 0.5 mm 3 mps 765 mmHg 94%
    06:00 +12°C° 0.5 mm 3 mps 765 mmHg 94%
    07:00 +12°C° 0.5 mm 3 mps 766 mmHg 94%
    08:00 +13°C° 0.8 mm 3 mps 766 mmHg 90%
    09:00 +13°C° 0.8 mm 3 mps 766 mmHg 87%
    10:00 +15°C° 0.8 mm 2 mps 766 mmHg 84%
    11:00 +16°C° 0.6 mm 3 mps 765 mmHg 82%
    12:00 +16°C° 0.6 mm 3 mps 765 mmHg 81%
    13:00 +15°C° 0.6 mm 4 mps 764 mmHg 79%
    14:00 +15°C° 0.2 mm 4 mps 764 mmHg 79%
    15:00 +15°C° 0.2 mm 4 mps 764 mmHg 79%
    16:00 +14°C° 0.2 mm 4 mps 764 mmHg 80%
    17:00 +13°C° 0.2 mm 4 mps 765 mmHg 83%
    18:00 +13°C° 0.2 mm 3 mps 765 mmHg 87%
    19:00 +12°C° 0.2 mm 3 mps 766 mmHg 90%
    20:00 +12°C° 0.5 mm 3 mps 766 mmHg 92%
    21:00 +12°C° 0.5 mm 3 mps 766 mmHg 93%
    22:00 +12°C° 0.5 mm 3 mps 766 mmHg 94%
    23:00 +12°C° 0.6 mm 3 mps 766 mmHg 95%

    27 August, Tuesday

    Time Temperature Precipitation Wind Pressure Humidity
    00:00 +11°C° 0.6 mm 3 mps 766 mmHg 95%
    01:00 +11°C° 0.6 mm 3 mps 766 mmHg 96%
    02:00 +11°C° 0.4 mm 3 mps 766 mmHg 95%
    03:00 +11°C° 0.4 mm 3 mps 766 mmHg 95%
    04:00 +12°C° 0.4 mm 3 mps 765 mmHg 94%
    05:00 +11°C° 0.3 mm 3 mps 766 mmHg 94%
    06:00 +11°C° 0.3 mm 3 mps 766 mmHg 95%
    07:00 +11°C° 0.3 mm 3 mps 766 mmHg 95%
    08:00 +13°C° 0.5 mm 3 mps 766 mmHg 90%
    09:00 +14°C° 0.5 mm 4 mps 766 mmHg 84%
    10:00 +17°C° 0.5 mm 4 mps 766 mmHg 79%
    11:00 +17°C° 0.8 mm 4 mps 766 mmHg 79%
    12:00 +17°C° 0.8 mm 4 mps 765 mmHg 79%
    13:00 +18°C° 0.8 mm 4 mps 765 mmHg 79%
    14:00 +17°C° 1.1 mm 4 mps 765 mmHg 81%
    15:00 +17°C° 1.1 mm 4 mps 765 mmHg 83%
    16:00 +15°C° 1.1 mm 4 mps 765 mmHg 85%
    17:00 +14°C° 1.3 mm 4 mps 765 mmHg 87%
    18:00 +13°C° 1.3 mm 4 mps 766 mmHg 90%
    19:00 +12°C° 1.3 mm 3 mps 766 mmHg 93%
    20:00 +12°C° 1.2 mm 3 mps 766 mmHg 94%
    21:00 +12°C° 1.2 mm 3 mps 767 mmHg 95%
    22:00 +11°C° 1.2 mm 3 mps 767 mmHg 96%
    23:00 +12°C° 0.4 mm 2 mps 767 mmHg 96%
    Show more